Elefsis, Greece

5:10 PM EEST on April 27, 2017 (GMT +0300)
Elefsis Air Base

Weather History for LGEL - January, 2013

Change the Weather History Date:

Monday, January 7, 2013

  Actual Average Record
Temperature  
Mean Temperature 43 °F -  
Max Temperature 51 °F 54 °F 64 °F (1998)
Min Temperature 35 °F 40 °F 30 °F (2002)
Degree Days  
Heating Degree Days 22    
Moisture  
Dew Point 27 °F    
Average Humidity 51    
Maximum Humidity 70    
Minimum Humidity 30    
Precipitation  
Precipitation 0.00 in - - ()
Sea Level Pressure  
Sea Level Pressure 29.92 in    
Wind  
Wind Speed 7 mph ()    
Max Wind Speed 30 mph    
Max Gust Speed 46 mph    
Visibility 6.2 miles    
Events      
Averages and records for this station are not official NWS values.
T = Trace of Precipitation, MM = Missing Value Source: Averaged Metar Reports

Daily Weather History Graph

Daily Weather History Graph

Search for Another Location

Airport or City:

Trip Planner

Search our weather history database for the weather conditions in past years. The results will help you decide how hot, cold, wet, or windy it might be!

Date:

Astronomy

Jan. 07, 2013 Rise Set
Actual Time 7:42 AM EET 5:22 PM EET
Civil Twilight 7:13 AM EET 5:51 PM EET
Nautical Twilight 6:40 AM EET 6:24 PM EET
Astronomical Twilight 6:08 AM EET 6:55 PM EET
Moon 2:45 AM EET (1/7) 1:17 PM EET (1/7)
Length of Visible Light 10h 38m
Length of Day
9h 39m
Waning Crescent, 26% of the Moon is Illuminated
Jan 7
Waning Crescent
Jan 11
New
Jan 19
First Quarter
Jan 27
Full
Feb 3
Last Quarter

Hourly Weather History & Observations

Time (EET) Temp. Windchill Dew Point Humidity Pressure Visibility Wind Dir Wind Speed Gust Speed Precip Events Conditions
12:50 AM 42.8 °F 38.0 °F 30.2 °F 61% 29.92 in 6.2 mi West 8.1 mph - N/A   Partly Cloudy
1:50 AM 39.2 °F 35.0 °F 30.2 °F 70% 29.92 in 6.2 mi North 5.8 mph - N/A   Partly Cloudy
2:50 AM 41.0 °F 37.1 °F 26.6 °F 57% 29.92 in 6.2 mi West 5.8 mph - N/A   Partly Cloudy
3:50 AM 37.4 °F 33.8 °F 28.4 °F 70% 29.92 in 6.2 mi NNW 4.6 mph - N/A   Partly Cloudy
4:50 AM 39.2 °F 35.0 °F 26.6 °F 61% 29.89 in 6.2 mi NNW 5.8 mph - N/A   Partly Cloudy
5:20 AM 37.4 °F 33.8 °F 24.8 °F 60% 29.89 in 6.2 mi NNW 4.6 mph - N/A   Partly Cloudy
5:50 AM 37.4 °F 32.8 °F 26.6 °F 65% 29.89 in 6.2 mi NNW 5.8 mph - N/A   Partly Cloudy
6:20 AM 39.2 °F 37.0 °F 24.8 °F 56% 29.89 in 6.2 mi Variable 3.5 mph - N/A   Partly Cloudy
6:50 AM 37.4 °F 34.9 °F 24.8 °F 60% 29.92 in 6.2 mi Variable 3.5 mph - N/A   Partly Cloudy
7:20 AM 37.4 °F - 24.8 °F 60% 29.92 in 6.2 mi Calm Calm - N/A   Partly Cloudy
7:50 AM 35.6 °F 32.8 °F 26.6 °F 70% 29.92 in 6.2 mi Variable 3.5 mph - N/A   Partly Cloudy
8:20 AM 39.2 °F 35.9 °F 26.6 °F 61% 29.92 in 6.2 mi NW 4.6 mph - N/A   Partly Cloudy
8:50 AM 41.0 °F - 28.4 °F 61% 29.92 in 6.2 mi Calm Calm - N/A   Partly Cloudy
9:20 AM 44.6 °F - 26.6 °F 49% 29.92 in 6.2 mi Calm Calm - N/A   Partly Cloudy
9:50 AM 44.6 °F - 24.8 °F 46% 29.92 in 6.2 mi Calm Calm - N/A   Scattered Clouds
10:20 AM 46.4 °F 45.2 °F 24.8 °F 43% 29.92 in 6.2 mi Variable 3.5 mph - N/A   Scattered Clouds
10:50 AM 48.2 °F - 24.8 °F 40% 29.92 in 6.2 mi Calm Calm - N/A   Scattered Clouds
11:20 AM 50.0 °F - 24.8 °F 37% 29.92 in 6.2 mi Calm Calm - N/A   Scattered Clouds
11:50 AM 51.8 °F - 21.2 °F 30% 29.89 in 6.2 mi SSE 4.6 mph - N/A   Mostly Cloudy
12:20 PM 51.8 °F - 24.8 °F 35% 29.89 in 6.2 mi Variable 3.5 mph - N/A   Mostly Cloudy
12:50 PM 51.8 °F - 26.6 °F 38% 29.89 in 6.2 mi South 5.8 mph - N/A   Mostly Cloudy
1:20 PM 51.8 °F - 28.4 °F 41% 29.89 in 6.2 mi Variable 3.5 mph - N/A   Mostly Cloudy
1:50 PM 51.8 °F - 30.2 °F 44% 29.86 in 6.2 mi ENE 5.8 mph - N/A   Mostly Cloudy
2:20 PM 51.8 °F - 30.2 °F 44% 29.86 in 6.2 mi East 4.6 mph - N/A   Mostly Cloudy
2:50 PM 51.8 °F - 32.0 °F 47% 29.86 in 6.2 mi NE 4.6 mph - N/A   Mostly Cloudy
3:20 PM 51.8 °F - 26.6 °F 38% 29.89 in - North - - N/A   Mostly Cloudy
3:50 PM 51.8 °F - 28.4 °F 41% 29.89 in 6.2 mi North 11.5 mph - N/A   Scattered Clouds
4:20 PM 50.0 °F - 28.4 °F 43% 29.89 in 6.2 mi North 12.7 mph - N/A   Scattered Clouds
4:50 PM 50.0 °F - 30.2 °F 47% 29.89 in 6.2 mi North 11.5 mph - N/A   Scattered Clouds
5:20 PM 48.2 °F - 32.0 °F 54% 29.89 in 6.2 mi NNE 10.4 mph - N/A   Scattered Clouds
5:50 PM 48.2 °F - 32.0 °F 54% 29.92 in 6.2 mi NNW 10.4 mph - N/A   Mostly Cloudy
6:20 PM 48.2 °F - 32.0 °F 54% 29.92 in 6.2 mi NNW 11.5 mph - N/A   Mostly Cloudy
6:50 PM 46.4 °F 39.5 °F 32.0 °F 57% 29.95 in 5.6 mi North 17.3 mph 28.8 mph N/A   Light Drizzle
7:20 PM 46.4 °F 40.1 °F 28.4 °F 50% 29.95 in 6.2 mi NNW 15.0 mph 26.5 mph N/A   Mostly Cloudy
7:50 PM 46.4 °F 39.5 °F 28.4 °F 50% 29.95 in 6.2 mi North 17.3 mph 28.8 mph N/A   Scattered Clouds
8:20 PM 44.6 °F 36.6 °F 28.4 °F 53% 29.95 in 6.2 mi North 19.6 mph 32.2 mph N/A   Scattered Clouds
8:50 PM 44.6 °F 34.9 °F 30.2 °F 57% 29.95 in 6.2 mi North 28.8 mph 40.3 mph N/A   Mostly Cloudy
9:20 PM 46.4 °F 38.3 °F 26.6 °F 46% 29.95 in 6.2 mi North 23.0 mph 39.1 mph N/A   Mostly Cloudy
9:50 PM 46.4 °F 38.3 °F 24.8 °F 43% 29.98 in 6.2 mi North 23.0 mph 39.1 mph N/A   Mostly Cloudy
10:20 PM 44.6 °F 34.9 °F 23.0 °F 43% 29.98 in 6.2 mi North 28.8 mph 42.6 mph N/A   Scattered Clouds
10:50 PM 44.6 °F 34.9 °F 24.8 °F 46% 29.98 in 6.2 mi North 28.8 mph 42.6 mph N/A   Scattered Clouds
11:50 PM 42.8 °F 32.3 °F 23.0 °F 46% 29.98 in 6.2 mi North 29.9 mph 46.0 mph N/A   Scattered Clouds